This is the latest recevied weather packets stored in our database for station/object W0BJ. If no packets are shown the sender has not sent any weather packets the latest 10 day(s).
| Time | Temp. | Humidity | Pressure | Rain* | Wind** | Luminosity | Snow |
|---|---|---|---|---|---|---|---|
| 1778108736 | 16.67° C | 39% | 1018.4 hPa | 0 mm | - | - | - |
| 1778108136 | 17.22° C | 36% | 1018.3 hPa | 0 mm | - | - | - |
| 1778108001 | 17.78° C | 36% | 1018.4 hPa | 0 mm | - | - | - |
| 1778107535 | 17.78° C | 37% | 1018.3 hPa | 0 mm | - | - | - |
| 1778107101 | 17.22° C | 39% | 1018.2 hPa | 0 mm | - | - | - |
| 1778106937 | 17.22° C | 37% | 1018.3 hPa | 0 mm | - | - | - |
| 1778106336 | 17.22° C | 39% | 1018.5 hPa | 0 mm | - | - | - |
| 1778106200 | 17.22° C | 38% | 1018.5 hPa | 0 mm | - | - | - |
| 1778105736 | 17.78° C | 35% | 1018.4 hPa | 0 mm | - | - | - |
| 1778105302 | 18.33° C | 38% | 1018.3 hPa | 0 mm | - | - | - |
| 1778105136 | 17.78° C | 39% | 1018.4 hPa | 0 mm | - | - | - |
| 1778104537 | 18.89° C | 37% | 1018.5 hPa | 0 mm | - | - | - |
| 1778104401 | 18.89° C | 39% | 1018.5 hPa | 0 mm | - | - | - |
| 1778103937 | 18.33° C | 36% | 1018.4 hPa | 0 mm | - | - | - |
| 1778103500 | 18.89° C | 35% | 1018.3 hPa | 0 mm | - | - | - |
| 1778103336 | 18.33° C | 37% | 1018.4 hPa | 0 mm | - | - | - |
| 1778102736 | 18.89° C | 38% | 1018.2 hPa | 0 mm | - | - | - |
| 1778102602 | 18.33° C | 37% | 1018.4 hPa | 0 mm | - | - | - |
| 1778102135 | 17.78° C | 39% | 1018.4 hPa | 0 mm | - | - | - |
| 1778101701 | 18.33° C | 37% | 1018.5 hPa | 0 mm | - | - | - |
| 1778101537 | 17.78° C | 39% | 1018.7 hPa | 0 mm | - | - | - |
| 1778100937 | 18.33° C | 36% | 1018.8 hPa | 0 mm | - | - | - |
| 1778100800 | 18.33° C | 37% | 1018.6 hPa | 0 mm | - | - | - |
| 1778100336 | 17.78° C | 36% | 1018.7 hPa | 0 mm | - | - | - |
| 1778099902 | 17.22° C | 39% | 1018.9 hPa | 0 mm | - | - | - |
* Rain latest hour (hover to see other rain measurements)
** Current wind speed in m/s (hover to see current wind gust speed)